Wind_Speed
21 20 21 22 22 22 21 20 19 18 17 16 15 15 14 14 14 13 12 11 11 10 9 8 8 8 8 7 7 7 6 6 6 6 6 6 5 5 5 5 6 6 7 8 9 10 10 12 13 14 14 14 13 13 13 14 14 15 16 15 15 15 15
21 22 23 23 23 23 22 21 21 20 18 17 16 15 15 15 14 14 13 12 12 11 10 9 8 8 8 8 8 8 7 7 7 7 6 6 6 6 6 5 6 7 7 8 9 10 10 12 14 15 15 15 16 15 15 15 16 17 17 17 17 17 17
22 24 24 24 24 24 23 23 22 21 19 18 17 16 16 15 14 14 14 13 13 12 11 10 10 9 8 8 8 8 8 8 8 8 7 7 7 7 7 7 7 8 8 9 10 11 11 12 14 15 16 17 18 18 18 18 19 19 19 19 19 19 20
25 26 27 26 26 24 23 23 22 21 20 19 18 17 16 15 15 14 14 13 13 13 12 12 12 11 10 8 8 8 9 9 9 9 9 9 8 8 8 8 9 9 10 10 11 12 12 13 14 15 16 17 18 19 19 19 20 20 21 21 21 22 22
28 28 28 27 25 24 23 23 23 21 20 19 18 18 16 15 15 14 13 13 12 13 13 13 13 13 11 10 10 10 10 10 10 10 11 11 10 10 10 10 11 11 12 12 12 12 12 13 14 15 15 16 17 18 18 19 20 20 21 22 22 22 22
29 29 27 25 24 23 23 23 22 21 20 19 18 18 17 16 15 14 13 12 12 13 13 13 13 14 13 13 13 12 12 12 12 12 13 13 12 12 12 12 13 13 13 12 12 12 13 14 14 15 15 16 16 16 16 17 18 19 20 21 21 21 22
29 27 25 23 23 23 23 22 22 21 20 19 19 18 17 16 15 14 13 12 13 13 13 13 13 14 15 15 15 14 14 13 13 14 14 15 15 14 14 14 14 14 13 12 12 12 13 14 14 15 15 15 15 14 15 16 18 19 19 20 20 21 21
27 26 24 23 21 21 21 21 21 21 20 19 19 18 17 16 14 14 14 14 14 14 14 14 15 16 16 17 16 16 16 15 15 14 15 16 16 15 14 14 14 13 13 12 12 13 14 15 15 15 14 14 14 14 15 16 18 19 19 19 20 20 20
27 25 24 23 22 21 20 19 19 19 18 18 17 17 16 15 15 14 14 14 14 14 15 15 16 17 17 18 18 18 18 17 16 15 15 16 16 16 15 15 14 13 13 13 13 14 15 15 15 14 14 14 14 14 15 17 18 18 18 19 19 19 19
26 26 25 24 23 21 19 18 17 16 15 16 16 16 16 16 16 16 15 15 15 15 16 16 17 17 18 18 18 18 18 17 16 15 15 15 16 15 15 15 15 14 14 14 14 15 15 15 14 14 14 14 14 15 16 17 18 18 18 18 18 18 17
26 27 26 25 23 21 18 16 16 15 15 15 16 17 17 18 18 17 17 16 16 16 17 17 16 16 16 16 16 17 17 17 17 17 16 16 15 15 15 15 15 15 15 15 15 15 15 15 14 15 15 15 15 15 16 16 17 17 17 17 17 17 17
23 23 24 24 23 20 16 15 16 15 15 16 16 17 18 18 18 19 18 18 17 17 18 17 16 16 14 14 14 15 15 16 16 16 16 16 16 16 16 16 16 15 15 15 15 15 15 15 15 15 15 15 15 15 15 16 16 17 17 17 17 17 17
20 21 23 23 21 19 16 16 16 15 14 16 16 17 18 19 19 20 20 19 19 19 18 17 17 16 14 13 13 14 14 15 15 14 14 15 16 16 16 16 15 15 15 15 16 16 16 17 17 17 17 17 16 16 16 16 17 18 18 18 17 18 18
18 19 21 21 20 20 18 17 17 15 15 16 17 16 17 18 20 21 21 21 20 20 20 19 17 16 15 13 13 13 14 14 13 13 13 14 15 15 16 15 15 15 16 17 17 18 19 19 19 19 19 18 18 17 17 18 18 18 17 17 16 16 16
17 18 19 19 20 21 20 18 17 17 18 19 20 19 18 18 19 21 22 22 22 22 22 21 19 17 16 15 14 14 14 14 14 14 14 14 15 16 16 16 16 16 17 18 19 20 21 21 21 21 21 20 19 19 18 18 17 17 16 16 15 15 16
18 19 20 21 21 22 21 19 17 17 20 22 23 23 21 20 20 21 22 23 23 23 23 22 21 19 18 17 16 16 16 16 15 15 15 16 16 17 17 17 18 18 19 19 20 21 21 22 22 22 22 21 21 20 19 18 18 18 18 18 17 17 16
18 20 21 22 23 23 23 20 18 18 20 22 23 23 22 21 20 20 21 23 23 23 22 21 21 20 19 19 18 18 18 17 17 16 16 17 17 18 18 19 19 20 20 21 21 22 22 22 23 23 23 23 22 20 19 19 19 18 18 17 16 16 16
19 20 21 21 22 23 22 22 21 19 19 21 21 21 21 20 19 19 20 22 24 24 23 21 21 21 21 21 21 21 20 19 18 17 17 17 18 18 18 19 20 21 22 22 22 22 23 23 23 24 24 24 23 21 20 18 17 16 16 16 16 17 18
20 20 21 21 21 21 22 22 23 22 21 20 19 19 20 19 18 18 18 21 24 26 26 25 24 23 23 24 23 22 21 21 20 19 18 18 18 18 19 20 21 21 22 22 23 23 23 23 24 24 24 23 22 20 18 17 16 16 17 18 18 19 20
20 20 22 22 21 20 20 21 21 21 23 22 19 18 19 18 18 18 19 21 23 26 27 28 27 26 26 25 24 23 22 21 21 20 19 19 19 19 20 20 21 21 22 22 23 23 23 23 23 23 22 21 20 19 18 18 18 19 20 20 20 20 21
22 21 22 24 25 24 25 26 25 23 24 25 20 18 17 16 17 17 17 19 22 23 25 27 27 26 26 25 24 23 23 22 22 21 21 20 20 20 21 21 22 22 22 22 22 22 22 22 22 22 22 22 22 22 21 21 21 21 21 21 21 22 22
24 23 23 23 25 26 27 28 27 25 26 26 22 18 18 17 16 16 15 17 19 21 23 25 25 26 26 25 24 24 23 23 23 23 22 21 21 21 22 22 23 22 22 22 22 22 22 22 23 24 25 25 25 25 25 24 24 23 23 22 22 22 22
21 21 22 21 21 22 22 20 18 17 19 23 21 18 20 20 18 17 17 17 19 21 22 24 25 26 26 26 25 25 24 24 24 23 23 22 22 23 23 23 23 23 23 23 23 24 24 25 25 26 27 27 27 27 27 26 25 24 24 23 22 22 21
19 20 21 21 20 21 22 20 16 13 13 17 19 20 22 21 19 18 18 19 21 22 23 23 24 24 25 26 26 26 25 24 23 23 23 23 24 24 24 24 24 24 25 25 26 27 27 28 28 28 29 29 29 29 28 27 26 25 24 24 23 22 22
19 19 19 19 19 19 20 20 18 17 16 17 19 22 22 20 18 16 16 18 21 23 23 23 22 23 24 24 25 25 24 23 23 23 24 24 25 25 25 26 26 26 27 28 29 30 31 31 31 30 30 30 29 29 28 28 28 27 26 26 25 25 24
20 20 20 20 19 19 20 20 20 20 20 20 20 21 21 20 18 16 15 17 19 21 23 23 22 22 22 23 23 23 23 23 23 24 25 25 26 26 27 28 28 29 30 31 31 32 32 32 32 31 31 30 30 30 30 30 30 30 29 29 29 29 29
20 20 21 21 22 22 22 22 22 23 23 22 21 20 20 20 20 20 18 17 18 20 22 24 24 24 23 23 23 23 23 24 24 25 25 26 27 28 29 30 31 32 33 33 33 33 33 33 33 33 33 32 32 32 32 32 32 32 31 32 32 33 34
20 21 21 21 22 23 23 23 23 23 23 23 22 23 23 23 23 23 22 21 21 21 22 24 26 26 26 25 24 24 24 25 25 26 26 27 28 29 30 31 32 33 34 34 34 35 35 35 35 36 35 35 34 34 34 34 34 34 34 35 36 36 37
22 22 22 22 22 22 22 22 21 22 23 23 24 25 25 25 24 25 26 27 26 24 24 25 27 28 28 27 27 26 26 26 26 27 28 29 30 31 32 33 34 35 35 36 37 38 39 39 39 39 38 37 38 38 37 37 38 38 38 39 38 39 40
24 24 24 24 24 24 25 25 24 24 25 24 23 25 27 28 29 29 28 29 28 27 27 27 28 30 30 30 29 29 28 29 30 31 31 32 33 34 35 36 37 37 38 39 40 41 42 42 42 42 42 42 42 42 41 41 41 41 42 42 42 42 42
27 27 27 27 27 27 29 29 28 28 28 26 26 28 31 31 32 31 30 30 30 30 30 31 31 32 33 34 33 33 33 33 34 35 36 37 38 39 40 41 41 41 41 42 43 43 44 44 45 45 45 45 45 44 44 44 44 44 44 44 44 44 45
29 30 29 29 30 30 30 30 31 31 31 30 31 33 34 34 34 33 32 33 33 34 35 35 35 36 36 37 38 39 40 40 40 40 41 41 42 43 44 45 44 43 43 43 44 45 45 46 46 46 46 46 46 47 47 47 48 48 48 47 47 48 49
31 32 31 31 32 32 32 32 33 33 33 34 35 35 36 37 37 37 37 37 37 38 39 40 41 41 41 42 44 45 46 47 47 46 46 46 46 47 48 48 47 47 47 47 47 48 48 48 49 50 51 52 53 54 54 55 55 55 55 55 55 55 54
35 35 34 34 34 35 35 35 35 35 36 37 38 39 39 39 40 41 41 42 43 43 44 45 46 47 47 48 49 49 50 51 51 51 50 50 50 50 51 51 51 52 53 53 53 53 53 53 54 54 55 56 57 58 58 59 58 58 59 59 58 58 57
39 40 40 40 40 40 40 40 40 40 40 40 40 41 41 42 43 44 45 46 47 47 48 48 49 50 51 51 52 53 53 53 53 53 53 53 53 54 54 55 55 57 58 58 57 57 57 58 58 58 59 59 59 59 59 60 59 58 57 57 57 57 57
42 43 44 44 45 45 45 45 45 44 44 43 43 42 42 42 43 44 44 45 46 47 47 48 49 50 51 51 52 52 53 53 53 53 53 54 54 55 56 57 58 60 61 62 62 61 61 61 60 60 60 60 59 59 59 60 60 59 58 59 59 59 59
43 44 45 45 46 46 47 47 47 47 46 46 45 45 44 44 44 45 45 46 47 48 49 49 50 50 51 51 52 52 52 53 54 54 54 55 55 56 57 58 59 61 62 63 64 64 64 63 62 62 61 61 61 61 61 61 62 63 63 63 63 61 59
Wind_Direction
218 213 210 213 216 215 212 210 211 211 212 213 213 215 217 221 223 226 230 235 239 241 239 231 225 227 232 237 241 245 245 241 237 236 231 230 236 246 251 253 254 256 258 257 258 261 264 265 265 265 265 264 262 259 256 258 259 259 258 257 256 258 261
222 215 211 213 216 215 215 215 216 215 214 215 215 215 217 219 221 223 228 231 234 235 233 228 223 226 230 231 234 239 241 240 237 235 231 225 226 233 240 246 252 255 256 256 257 259 262 266 269 271 273 274 274 272 267 265 265 265 263 262 262 263 264
220 214 210 212 214 216 218 220 221 219 218 218 218 218 219 221 223 225 228 230 229 228 226 223 220 222 227 232 237 241 243 243 241 240 237 233 230 232 237 242 247 252 256 257 258 257 257 260 263 267 270 272 273 274 274 275 275 274 272 272 271 272 273
218 213 212 212 214 217 220 224 224 222 220 221 221 221 221 223 226 228 230 231 227 224 223 222 220 221 225 232 239 245 248 248 247 247 245 242 240 240 239 240 244 249 252 255 257 259 260 261 261 262 265 267 270 273 277 279 280 280 281 281 281 281 281
217 215 215 215 216 219 223 226 226 223 222 224 224 223 222 221 224 226 227 227 226 224 223 223 224 224 227 233 240 244 247 251 253 252 251 248 246 247 246 245 247 248 249 251 254 258 261 262 262 262 265 268 272 277 281 284 285 286 287 287 287 287 286
216 216 216 217 219 220 222 223 223 224 225 227 226 225 223 221 221 222 221 220 223 225 227 227 229 231 234 237 240 244 248 252 255 256 255 251 248 249 250 250 251 251 251 251 253 255 257 258 258 260 263 267 271 278 284 286 286 286 286 286 287 288 288
216 217 217 218 219 218 219 220 223 226 227 227 227 227 227 224 221 219 217 217 221 227 232 235 237 241 244 246 248 252 256 258 258 257 255 253 249 249 252 254 254 255 254 254 254 256 257 259 260 262 265 268 274 279 281 281 280 281 282 284 286 288 289
215 217 217 215 213 215 219 222 225 227 225 224 225 228 231 231 227 221 217 217 221 228 235 241 246 249 252 256 258 261 263 264 263 260 256 252 248 248 252 255 256 255 255 255 256 257 258 261 264 266 268 272 274 275 275 274 275 277 280 283 285 286 288
214 214 213 211 211 215 219 223 226 226 224 223 225 229 233 236 236 230 224 223 227 233 240 246 250 253 256 259 261 262 264 265 264 263 259 253 248 247 250 253 254 253 252 252 252 253 255 258 261 264 267 268 269 269 269 271 273 275 278 280 282 283 284
213 212 212 213 215 217 219 223 225 226 228 228 228 229 231 234 236 237 234 233 236 240 246 251 255 257 258 258 258 259 261 263 264 265 263 257 251 248 248 248 248 247 246 247 249 251 255 258 261 263 265 267 268 269 270 271 273 275 277 277 278 278 279
214 215 218 220 221 222 224 229 231 232 232 231 232 231 231 232 234 237 239 240 243 246 250 254 257 259 258 256 256 257 259 262 266 268 268 263 258 253 248 246 245 247 249 251 253 255 259 262 263 265 267 269 270 271 272 272 273 274 275 275 274 275 276
220 224 228 228 229 232 236 238 240 242 241 237 236 236 235 235 235 237 240 243 246 250 252 255 257 258 258 257 258 259 260 262 265 267 267 266 263 258 254 252 254 256 259 262 264 265 267 267 268 270 271 272 272 272 272 273 273 272 272 271 272 274 274
223 228 231 234 239 245 248 243 242 247 247 242 240 242 242 241 240 238 239 242 246 250 253 255 255 256 259 261 261 261 262 261 261 260 261 262 263 261 260 260 263 265 268 271 272 274 274 274 274 273 273 273 273 273 272 271 270 269 269 270 271 273 275
222 228 233 239 245 250 250 246 243 246 246 242 243 247 249 248 246 242 240 241 245 249 253 254 254 255 257 259 261 261 261 259 258 256 256 257 258 260 261 261 264 267 269 273 275 276 276 275 274 273 273 273 272 271 270 268 268 269 270 271 272 273 276
224 231 237 243 247 249 249 247 245 246 246 246 247 250 253 253 251 247 243 242 243 248 252 254 255 254 254 256 258 259 259 257 255 254 253 254 255 256 257 258 260 263 266 270 272 273 274 274 274 273 272 271 270 269 270 270 272 273 273 274 275 276 279
231 236 241 245 247 246 244 241 243 248 250 249 249 252 254 253 251 248 245 244 244 247 251 253 255 255 254 255 256 257 257 256 255 254 253 254 255 255 256 258 259 261 263 264 266 268 269 270 270 270 270 270 269 269 271 272 273 275 276 278 279 280 282
243 245 246 248 248 246 242 240 245 253 254 250 249 251 252 252 250 246 244 244 245 246 248 252 256 258 258 257 256 256 257 256 255 254 254 255 256 257 258 259 260 260 260 260 260 261 262 264 265 266 266 267 267 268 270 271 272 273 275 276 278 280 282
250 251 251 251 250 247 244 244 248 253 253 250 250 251 252 251 250 248 245 245 245 245 245 248 253 258 259 257 255 254 253 253 252 251 251 253 255 257 258 258 258 257 257 256 256 257 257 259 260 262 263 264 265 267 267 266 267 268 270 274 277 281 283
251 252 255 253 248 246 246 247 248 248 247 248 250 253 255 254 252 251 249 247 247 246 245 247 251 256 259 256 253 252 251 250 249 248 249 250 252 254 255 256 256 255 255 255 255 256 257 259 260 262 264 264 264 264 262 262 264 267 271 276 279 281 281
253 255 257 255 251 247 246 246 246 244 241 242 248 251 252 253 253 253 252 251 251 250 249 250 252 255 257 254 252 251 250 250 250 249 249 250 251 251 252 253 254 255 255 255 256 257 259 260 261 261 259 258 256 255 256 259 262 265 269 272 274 275 274
254 257 260 262 260 253 251 252 252 249 241 238 243 247 246 250 255 255 255 254 253 253 252 251 251 252 252 251 250 251 251 252 252 251 250 249 250 251 252 253 254 255 255 256 256 257 257 255 253 250 247 246 247 249 252 255 258 262 264 267 268 269 271
251 255 259 264 263 260 261 260 255 255 249 238 236 243 249 255 260 259 258 258 257 255 252 250 249 248 248 248 249 249 250 251 251 250 250 250 250 251 253 253 254 254 253 253 252 251 249 247 244 243 244 246 248 251 254 257 260 263 265 265 266 267 270
245 248 251 256 258 260 266 264 255 255 249 235 231 243 254 259 262 261 260 260 260 258 255 252 251 250 249 250 250 250 251 252 253 253 252 252 252 252 252 251 250 250 249 248 247 246 245 244 243 244 246 249 252 255 258 260 263 264 264 263 262 264 269
241 245 248 252 254 256 261 262 257 254 246 236 239 247 252 257 260 259 258 257 258 259 257 255 254 254 254 254 253 253 254 254 256 256 256 255 255 253 251 249 248 247 247 247 247 246 246 246 247 249 252 254 257 259 261 263 264 264 263 261 261 264 268
244 245 248 251 252 253 256 258 257 257 254 249 245 244 247 252 253 251 252 255 256 257 257 256 255 255 255 254 254 253 253 254 255 255 256 257 256 254 253 252 251 251 251 251 251 251 252 252 253 255 256 258 260 262 263 265 267 268 266 264 264 267 270
248 249 253 256 257 258 260 260 260 262 264 259 248 240 242 246 245 244 248 253 254 254 255 254 253 253 254 254 255 256 256 257 256 256 257 256 256 256 256 256 256 256 256 256 256 256 257 257 258 260 261 262 264 265 267 268 270 269 267 267 268 270 272
254 254 257 260 262 263 264 266 267 267 265 259 246 240 245 247 245 246 251 254 255 255 254 253 251 249 249 251 255 258 261 262 262 262 260 259 257 256 257 257 258 259 260 260 260 260 261 262 263 265 266 268 268 269 270 271 270 267 267 271 273 275 276
255 256 258 260 264 267 268 269 270 269 265 254 244 245 251 250 246 248 252 254 255 256 254 252 250 248 246 246 248 252 257 260 263 264 264 263 261 260 259 260 261 261 262 263 264 264 265 267 267 268 269 271 271 272 272 272 269 268 271 276 279 279 279
253 254 256 257 260 264 266 266 265 263 260 256 255 257 254 250 250 254 256 256 257 258 257 254 251 249 247 246 246 247 251 254 258 260 263 264 265 265 265 265 265 266 266 267 268 268 268 269 270 271 273 274 274 275 274 272 272 273 275 278 278 278 279
252 253 254 254 253 254 256 258 257 255 254 255 259 260 255 251 255 259 258 257 257 258 258 257 254 251 249 248 248 249 252 256 259 260 260 261 261 262 264 265 266 266 268 268 269 270 270 271 273 274 275 274 274 274 274 273 274 275 276 276 276 277 278
248 250 251 252 252 251 251 252 251 251 251 250 250 252 253 253 255 256 256 256 257 257 257 257 257 255 252 250 250 251 254 259 262 262 261 261 261 261 262 263 263 264 266 267 269 270 271 271 272 273 272 271 271 271 271 271 271 272 273 274 274 275 276
251 252 253 254 255 255 253 252 251 251 252 250 248 249 252 253 255 255 255 255 257 258 258 258 258 258 257 254 254 255 258 262 264 263 262 262 262 262 263 264 264 265 266 267 268 268 268 268 268 267 268 269 270 270 271 271 271 271 273 273 274 274 275
254 255 258 259 260 259 258 257 256 255 254 253 252 251 252 254 255 257 257 257 259 260 260 260 259 259 258 257 257 259 261 264 265 265 265 264 263 263 264 265 266 267 267 266 267 267 267 267 267 267 269 270 271 272 273 273 274 274 275 275 276 276 277
258 256 258 260 260 260 260 260 260 260 259 257 255 254 253 253 253 254 255 256 257 258 259 259 259 258 257 257 258 259 261 262 263 265 265 266 266 266 266 267 267 267 267 268 268 268 269 269 270 270 271 272 272 273 274 274 275 275 276 276 277 278 278
260 258 259 261 263 263 263 262 263 263 262 261 259 258 256 255 255 255 255 256 257 258 258 259 259 259 259 260 260 260 261 262 263 263 265 265 266 267 267 268 267 267 268 268 268 269 270 270 271 272 273 273 273 273 273 274 274 274 274 275 276 277 278
260 260 261 263 264 265 265 266 266 266 266 266 265 264 262 261 261 261 261 261 262 263 263 263 263 264 264 264 264 264 263 264 264 264 264 264 265 265 265 266 266 266 267 268 268 268 269 269 270 270 271 272 272 272 272 273 273 273 273 274 275 276 277
260 261 261 262 263 264 266 267 268 269 269 269 269 269 268 267 266 265 265 265 265 265 265 265 265 264 264 264 264 264 263 263 263 263 263 262 262 262 262 262 263 263 264 265 266 267 267 268 269 269 270 271 271 271 272 272 273 273 274 274 275 276 277
Height
5777 5778 5778 5779 5780 5782 5783 5784 5785 5786 5787 5787 5788 5789 5790 5791 5791 5791 5792 5792 5792 5793 5794 5795 5796 5796 5797 5798 5799 5799 5800 5800 5800 5800 5801 5801 5802 5803 5803 5803 5804 5804 5804 5804 5804 5804 5803 5803 5803 5803 5804 5805 5806 5806 5805 5805 5804 5804 5803 5803 5803 5802 5802
5776 5775 5776 5777 5778 5780 5781 5782 5783 5784 5785 5785 5786 5787 5788 5788 5789 5789 5790 5790 5791 5791 5792 5793 5794 5795 5796 5797 5797 5798 5799 5799 5799 5799 5800 5800 5801 5801 5802 5802 5803 5803 5803 5804 5804 5803 5803 5803 5803 5803 5804 5805 5805 5805 5805 5805 5804 5803 5802 5802 5802 5802 5801
5773 5773 5774 5775 5776 5777 5779 5780 5781 5782 5783 5784 5784 5785 5786 5786 5787 5787 5788 5788 5789 5790 5791 5792 5793 5794 5795 5796 5796 5797 5798 5798 5798 5798 5799 5799 5800 5800 5801 5801 5801 5802 5802 5803 5803 5803 5803 5803 5802 5803 5803 5803 5804 5804 5804 5804 5804 5803 5802 5802 5802 5802 5801
5770 5771 5771 5772 5774 5775 5777 5778 5779 5781 5782 5782 5783 5783 5784 5784 5785 5785 5786 5787 5787 5788 5789 5790 5791 5792 5794 5795 5796 5796 5797 5797 5797 5797 5797 5798 5799 5799 5799 5800 5800 5800 5800 5801 5801 5802 5802 5802 5802 5802 5802 5802 5802 5803 5804 5804 5803 5803 5803 5802 5802 5802 5801
5767 5768 5769 5771 5772 5774 5776 5777 5778 5779 5780 5781 5781 5782 5782 5783 5783 5784 5784 5785 5786 5786 5787 5788 5789 5791 5792 5793 5794 5795 5796 5796 5796 5796 5795 5796 5797 5797 5798 5798 5798 5798 5799 5799 5800 5800 5801 5800 5800 5800 5801 5801 5801 5802 5802 5802 5802 5802 5802 5802 5802 5801 5801
5764 5766 5767 5769 5771 5773 5774 5775 5776 5777 5778 5779 5780 5780 5780 5781 5782 5782 5783 5784 5784 5785 5786 5787 5788 5789 5790 5791 5793 5794 5794 5795 5795 5794 5794 5794 5795 5796 5796 5796 5796 5796 5797 5798 5799 5799 5799 5799 5799 5799 5799 5799 5800 5800 5801 5800 5800 5800 5800 5800 5800 5800 5799
5763 5765 5767 5768 5770 5771 5772 5773 5774 5775 5776 5777 5778 5779 5779 5780 5780 5781 5781 5782 5783 5784 5785 5786 5786 5787 5788 5789 5790 5792 5792 5793 5793 5793 5792 5793 5793 5794 5795 5795 5795 5795 5796 5796 5797 5798 5798 5797 5798 5798 5798 5798 5799 5799 5799 5798 5798 5798 5798 5797 5797 5797 5797
5762 5764 5766 5767 5769 5770 5770 5771 5772 5773 5774 5776 5777 5778 5778 5778 5779 5780 5780 5781 5782 5783 5784 5784 5785 5785 5786 5787 5788 5789 5790 5790 5790 5790 5790 5790 5791 5792 5793 5793 5793 5794 5794 5795 5795 5795 5795 5795 5796 5796 5796 5797 5797 5797 5797 5796 5796 5795 5795 5795 5795 5795 5795
5762 5763 5764 5766 5767 5767 5768 5769 5771 5772 5774 5775 5776 5777 5777 5777 5777 5778 5779 5780 5780 5781 5782 5782 5783 5783 5784 5785 5786 5786 5787 5787 5787 5788 5788 5788 5789 5790 5791 5791 5792 5792 5793 5793 5793 5793 5793 5793 5794 5794 5794 5795 5795 5794 5794 5794 5793 5794 5794 5793 5793 5793 5793
5761 5762 5762 5763 5765 5766 5767 5769 5770 5771 5773 5774 5775 5775 5776 5776 5776 5776 5777 5779 5779 5780 5780 5781 5781 5782 5782 5783 5784 5784 5785 5785 5785 5785 5786 5786 5787 5788 5789 5789 5789 5790 5790 5791 5791 5791 5791 5791 5792 5792 5792 5792 5792 5792 5792 5792 5792 5792 5791 5791 5792 5792 5791
5759 5760 5761 5762 5764 5766 5767 5768 5769 5770 5771 5772 5773 5774 5774 5774 5775 5775 5776 5777 5778 5778 5779 5779 5780 5780 5781 5781 5782 5782 5783 5783 5783 5783 5784 5784 5785 5785 5786 5786 5787 5787 5788 5788 5789 5789 5789 5790 5790 5790 5790 5790 5790 5790 5790 5790 5790 5790 5790 5789 5789 5789 5789
5759 5759 5760 5762 5763 5765 5767 5768 5769 5769 5770 5771 5771 5772 5772 5773 5773 5774 5774 5775 5776 5776 5777 5777 5778 5778 5779 5780 5780 5780 5781 5781 5781 5781 5782 5782 5783 5783 5784 5784 5784 5785 5785 5786 5786 5786 5787 5787 5787 5787 5787 5788 5788 5788 5788 5788 5788 5788 5788 5787 5787 5787 5787
5758 5758 5759 5760 5762 5763 5765 5767 5768 5768 5769 5769 5770 5770 5770 5771 5772 5772 5773 5773 5774 5775 5775 5776 5776 5776 5777 5778 5778 5779 5779 5779 5779 5780 5780 5781 5781 5782 5782 5782 5783 5783 5783 5784 5784 5784 5785 5785 5785 5785 5785 5785 5785 5786 5786 5786 5786 5786 5786 5786 5785 5785 5785
5756 5756 5757 5758 5759 5761 5763 5764 5766 5767 5767 5768 5768 5768 5768 5769 5769 5770 5771 5772 5772 5773 5773 5774 5774 5775 5775 5776 5777 5777 5778 5778 5778 5778 5779 5779 5779 5780 5780 5781 5781 5781 5782 5782 5782 5783 5783 5783 5783 5783 5783 5783 5783 5784 5784 5784 5784 5784 5784 5784 5784 5784 5784
5754 5755 5756 5756 5757 5759 5761 5762 5763 5764 5765 5766 5766 5766 5767 5767 5767 5768 5769 5769 5770 5771 5771 5772 5772 5773 5774 5774 5775 5776 5776 5777 5777 5777 5777 5777 5778 5778 5779 5779 5779 5780 5780 5780 5781 5781 5781 5781 5781 5781 5781 5781 5782 5782 5782 5782 5782 5782 5782 5782 5782 5782 5782
5753 5753 5754 5754 5755 5757 5758 5760 5761 5762 5763 5763 5764 5764 5765 5765 5765 5765 5766 5767 5768 5769 5770 5770 5771 5771 5772 5772 5773 5774 5775 5775 5775 5775 5775 5776 5776 5776 5777 5777 5777 5778 5778 5778 5779 5779 5779 5780 5780 5779 5779 5780 5780 5780 5780 5780 5780 5780 5780 5780 5780 5780 5780
5751 5752 5752 5752 5753 5754 5756 5757 5758 5759 5760 5761 5761 5762 5762 5763 5763 5763 5763 5764 5766 5767 5768 5768 5769 5769 5770 5771 5771 5772 5773 5773 5774 5774 5774 5774 5774 5774 5775 5775 5775 5776 5776 5776 5777 5777 5777 5777 5777 5777 5777 5778 5778 5777 5777 5777 5778 5778 5778 5778 5778 5778 5778
5749 5749 5750 5750 5751 5752 5753 5755 5756 5757 5757 5758 5758 5759 5759 5760 5761 5761 5761 5762 5763 5764 5765 5766 5767 5767 5768 5768 5769 5770 5771 5771 5772 5772 5772 5772 5772 5772 5773 5773 5773 5774 5774 5774 5774 5775 5775 5775 5775 5775 5775 5775 5775 5775 5775 5775 5775 5775 5775 5775 5775 5775 5775
5745 5746 5747 5748 5748 5749 5750 5751 5752 5753 5754 5755 5756 5756 5757 5757 5758 5758 5759 5759 5760 5761 5762 5763 5764 5764 5765 5766 5766 5767 5768 5769 5769 5769 5769 5769 5770 5770 5770 5770 5771 5771 5772 5772 5772 5772 5773 5773 5773 5773 5773 5773 5773 5773 5773 5772 5772 5772 5772 5772 5772 5772 5773
5742 5744 5744 5745 5746 5747 5747 5747 5748 5750 5751 5752 5753 5754 5754 5755 5755 5756 5756 5757 5757 5758 5760 5761 5761 5762 5763 5763 5764 5765 5766 5766 5767 5767 5767 5767 5767 5767 5768 5768 5768 5769 5769 5770 5770 5771 5771 5771 5771 5771 5771 5771 5771 5771 5770 5770 5770 5770 5769 5769 5769 5769 5770
5740 5741 5742 5742 5743 5743 5744 5744 5745 5747 5748 5749 5750 5751 5752 5752 5752 5753 5753 5754 5755 5756 5757 5758 5759 5760 5760 5761 5761 5762 5763 5763 5764 5764 5764 5764 5764 5765 5765 5766 5766 5767 5767 5768 5768 5769 5769 5769 5769 5769 5769 5769 5769 5769 5768 5768 5768 5767 5767 5767 5767 5767 5767
5737 5738 5739 5739 5739 5739 5740 5741 5742 5743 5744 5746 5747 5748 5749 5749 5750 5750 5751 5751 5752 5753 5754 5755 5756 5756 5757 5758 5759 5759 5760 5761 5761 5761 5761 5761 5762 5762 5763 5763 5764 5764 5765 5765 5766 5766 5766 5766 5766 5766 5767 5767 5767 5766 5766 5766 5765 5765 5765 5764 5764 5764 5764
5734 5735 5736 5736 5736 5736 5737 5738 5739 5740 5741 5742 5744 5746 5746 5747 5748 5748 5749 5749 5750 5751 5752 5752 5753 5753 5754 5755 5756 5757 5757 5758 5758 5758 5758 5759 5759 5760 5760 5761 5761 5762 5762 5762 5763 5763 5763 5763 5763 5764 5764 5764 5764 5764 5763 5763 5762 5762 5762 5761 5761 5761 5760
5731 5732 5732 5733 5734 5734 5735 5735 5736 5738 5739 5740 5742 5743 5744 5745 5745 5746 5746 5747 5748 5748 5749 5750 5750 5750 5751 5752 5752 5753 5754 5755 5756 5756 5756 5756 5757 5757 5758 5758 5758 5759 5759 5759 5760 5760 5760 5760 5760 5760 5760 5760 5760 5760 5759 5759 5758 5758 5757 5757 5757 5756 5756
5729 5729 5730 5731 5732 5733 5733 5734 5734 5735 5737 5738 5740 5740 5741 5742 5742 5743 5743 5744 5745 5745 5746 5746 5747 5747 5748 5748 5749 5750 5751 5752 5752 5753 5753 5754 5754 5754 5755 5755 5756 5756 5756 5756 5757 5757 5756 5756 5756 5756 5756 5755 5755 5755 5754 5754 5753 5753 5752 5752 5751 5751 5751
5726 5728 5729 5730 5731 5731 5732 5732 5733 5734 5734 5735 5736 5737 5738 5739 5739 5739 5740 5740 5741 5742 5742 5743 5743 5744 5745 5745 5746 5747 5748 5748 5749 5749 5750 5750 5751 5751 5752 5752 5753 5753 5753 5753 5753 5753 5752 5752 5751 5751 5751 5750 5750 5750 5749 5749 5748 5748 5747 5747 5747 5746 5746
5724 5726 5727 5728 5729 5729 5730 5730 5731 5732 5732 5732 5733 5734 5735 5736 5736 5736 5736 5737 5737 5738 5738 5739 5739 5740 5741 5742 5743 5744 5744 5745 5745 5746 5746 5747 5748 5748 5748 5749 5749 5749 5749 5748 5748 5748 5747 5747 5746 5746 5745 5745 5745 5745 5744 5744 5743 5743 5743 5743 5742 5742 5741
5721 5723 5724 5725 5726 5726 5726 5727 5728 5729 5730 5730 5730 5731 5732 5732 5733 5733 5733 5733 5734 5734 5735 5735 5736 5736 5737 5738 5739 5740 5740 5741 5742 5742 5743 5743 5744 5744 5744 5745 5745 5744 5744 5743 5743 5742 5742 5741 5741 5740 5740 5741 5740 5740 5739 5739 5738 5738 5738 5738 5737 5736 5735
5718 5719 5720 5722 5723 5724 5723 5724 5725 5726 5727 5728 5728 5729 5729 5729 5730 5730 5730 5730 5730 5731 5731 5732 5732 5733 5733 5734 5734 5735 5736 5736 5737 5738 5738 5739 5739 5739 5739 5739 5739 5739 5738 5738 5737 5736 5736 5735 5735 5735 5736 5735 5735 5734 5734 5733 5733 5733 5733 5732 5732 5731 5730
5715 5716 5716 5718 5720 5720 5720 5720 5721 5723 5723 5725 5726 5726 5726 5726 5726 5726 5726 5726 5726 5727 5728 5728 5728 5729 5730 5730 5730 5730 5731 5732 5732 5733 5733 5733 5734 5734 5733 5733 5733 5732 5732 5732 5731 5730 5730 5730 5730 5730 5730 5729 5729 5728 5728 5727 5727 5727 5726 5726 5726 5725 5724
5711 5712 5713 5714 5715 5716 5717 5717 5718 5719 5720 5722 5724 5723 5721 5722 5722 5722 5722 5722 5722 5723 5724 5724 5725 5725 5725 5725 5725 5726 5726 5727 5727 5728 5728 5728 5728 5728 5727 5727 5726 5727 5727 5727 5726 5725 5725 5725 5726 5725 5724 5723 5723 5723 5722 5721 5721 5720 5720 5719 5719 5719 5718
5708 5709 5710 5711 5712 5713 5713 5713 5714 5715 5716 5717 5718 5718 5717 5718 5718 5718 5718 5719 5718 5719 5719 5720 5720 5720 5720 5721 5721 5720 5721 5721 5722 5722 5723 5723 5723 5722 5722 5721 5721 5722 5722 5721 5720 5720 5720 5720 5720 5719 5717 5717 5718 5717 5716 5715 5714 5714 5714 5713 5713 5712 5712
5705 5706 5706 5707 5708 5708 5709 5709 5710 5710 5711 5712 5712 5713 5713 5713 5713 5714 5714 5714 5714 5714 5714 5714 5715 5715 5715 5715 5715 5715 5715 5715 5715 5716 5716 5716 5716 5716 5716 5715 5715 5715 5715 5714 5714 5713 5713 5713 5713 5712 5711 5711 5711 5710 5709 5708 5707 5706 5706 5705 5705 5705 5705
5702 5703 5703 5703 5703 5704 5704 5705 5705 5706 5706 5707 5707 5707 5708 5708 5709 5709 5709 5709 5709 5709 5708 5708 5708 5708 5708 5708 5708 5708 5708 5708 5709 5709 5709 5709 5709 5709 5709 5709 5709 5707 5706 5706 5706 5705 5705 5705 5705 5704 5704 5703 5703 5701 5700 5700 5699 5698 5698 5697 5697 5697 5696
5697 5698 5698 5698 5698 5699 5699 5700 5700 5701 5701 5702 5702 5702 5703 5703 5703 5703 5703 5703 5703 5703 5702 5702 5701 5700 5701 5701 5701 5701 5701 5701 5702 5702 5702 5702 5702 5702 5701 5701 5701 5699 5698 5698 5698 5697 5696 5695 5695 5696 5695 5694 5693 5693 5692 5691 5690 5690 5689 5689 5689 5689 5688
5691 5691 5692 5692 5692 5693 5693 5694 5694 5695 5695 5695 5696 5696 5696 5697 5697 5697 5697 5697 5696 5696 5696 5695 5694 5693 5693 5693 5693 5693 5694 5693 5694 5694 5695 5695 5694 5694 5694 5693 5692 5691 5690 5689 5689 5689 5688 5687 5687 5687 5685 5684 5684 5684 5684 5683 5682 5682 5682 5681 5681 5681 5681
5685 5686 5686 5686 5687 5687 5687 5687 5688 5688 5688 5689 5689 5689 5689 5690 5690 5690 5690 5690 5689 5689 5689 5688 5687 5686 5685 5685 5684 5685 5685 5685 5685 5685 5686 5686 5686 5686 5686 5685 5684 5683 5682 5681 5680 5679 5679 5678 5677 5677 5676 5676 5676 5676 5676 5676 5674 5674 5673 5673 5673 5673 5673